Location: Kershaw
(34.5481°N, 80.5823°W)
Time: 00:25:25
(UTC+00:00)

Altair - Pass Details

Date: 09 October 2022
Orbit: 1501 x 1682 km, 47.2° (Epoch: 05 December)

Event Time Altitude Azimuth Distance (km) Brightness Sun altitude
Exits shadow 10:03:16 22° 281° (W) 2,980 8.4 -17.2°
Maximum altitude 10:09:31 47° 343° (NNW) 2,064 8.0 -16.0°
Drops below altitude 10° 10:19:04 10° 55° (NE) 3,912 10.5 -14.0°
Sets 10:22:29 0° 62° (ENE) 4,916 11.4 -13.3°
